Regional Weather Roundup
Issued by NWS Little Rock, AR

Home | Current Version | Previous Version | Graphics & Text | Print | Product List | Glossary On
Versions: 1 2 3 4 5 6 7 8 9 10 11 12 13 14 15 16 17 18 19 20 21 22 23 24 25 26 27 28 29 30 31 32
000
ASUS44 KLZK 140405
RWRLZK

WEATHER ROUNDUP FOR ARKANSAS
NATIONAL WEATHER SERVICE LITTLE ROCK AR
1000 PM CST WED DEC 13 2017

NOTE: "FAIR" INDICATES FEW OR NO CLOUDS BELOW 12,000 FEET WITH NO
SIGNIFICANT WEATHER AND/OR OBSTRUCTIONS TO VISIBILITY.

ARZ001-003-010-029-140500-
NORTHWEST ARKANSAS

CITY           SKY/WX    TMP DP  RH WIND       PRES   REMARKS
FAYETTEVILLE   CLEAR     30  25  81 S5        29.91R WCI  25
FORT SMITH     CLEAR     45  28  51 SW6       29.89S
HARRISON       CLEAR     47  26  44 NW8       29.87R
BENTONVILLE    CLEAR     46  26  45 NW5       29.91R
ROGERS         CLEAR     46  26  45 CALM      29.90R
SILOAM SPGS    CLEAR     42  25  50 W3        29.91R
HIGHFILL       CLEAR     44  26  49 NW6       29.90R
$$

ARZ004-005-016-140500-
NORTH CENTRAL ARKANSAS

CITY           SKY/WX    TMP DP  RH WIND       PRES   REMARKS
BATESVILLE     CLEAR     47  26  44 W6        29.85R
FLIPPIN        CLEAR     51  27  39 W6        29.87R
MTN HOME       CLEAR     48  29  47 N3        29.85R
$$

ARZ040-041-140500-
WEST CENTRAL ARKANSAS

CITY           SKY/WX    TMP DP  RH WIND       PRES   REMARKS
MENA           CLEAR     36  30  80 CALM      29.91R
MOUNT IDA      CLEAR     40  28  62 CALM      29.88R
$$

ARZ009-017-025-026-028-140500-
NORTHEAST ARKANSAS

CITY           SKY/WX    TMP DP  RH WIND       PRES   REMARKS
JONESBORO      CLEAR     48  28  46 W6        29.83R
NEWPORT        CLEAR     48  28  46 W10       29.84R
WALNUT RIDGE   CLEAR     46  26  45 W7        29.83R
BLYTHEVILLE    CLEAR     45  29  53 SW7       29.81R
$$

ARZ022-023-033-042-044-140500-
CENTRAL ARKANSAS

CITY           SKY/WX    TMP DP  RH WIND       PRES   REMARKS
LITTLE ROCK    CLEAR     46  29  51 SW8       29.88R
N LITTLE ROCK    N/A     53  28  39 W5        29.91R
JACKSONVILLE   CLEAR     47  27  45 W7        29.86S
SEARCY         CLEAR     51  28  41 W5        29.87R
HOT SPRINGS    CLEAR     45  35  68 W5        29.90R
RUSSELLVILLE   CLEAR     39  29  67 CALM      29.88R
CLINTON        FAIR      30  27  86 CALM      29.88S
$$

ARZ036-140500-
EAST ARKANSAS

CITY           SKY/WX    TMP DP  RH WIND       PRES   REMARKS
WEST MEMPHIS   CLEAR     47  29  49 SW3       29.83S
$$

ARZ050-053-066-070-073-140500-
SOUTHWEST ARKANSAS

CITY           SKY/WX    TMP DP  RH WIND       PRES   REMARKS
ARKADELPHIA    FAIR      36  29  75 CALM      29.92R
CAMDEN         CLOUDY    48  27  43 CALM      29.90R
TEXARKANA      CLEAR     49  30  48 SW8       29.91R
EL DORADO      CLEAR     46  33  60 SW6       29.92R
DE QUEEN       CLEAR     35  31  85 CALM      29.89R
$$

ARZ056-057-069-140500-
SOUTHEAST ARKANSAS

CITY           SKY/WX    TMP DP  RH WIND       PRES   REMARKS
PINE BLUFF     CLEAR     50  27  40 W7        29.90R
STUTTGART      CLEAR     41  30  65 SW10      29.88R
MONTICELLO     CLEAR     51  29  42 SW9       29.90R

$$






USA.gov is the U.S. government's official web portal to all federal, state and local government web resources and services.